| Date | Time | Temp. (oF) | Dew Point (oF) | Rel. Hum. (%) | Press. (in.) | Wind Dir. | Wind Speed (mph) | Hourly Rainfall (in.) |
|
|---|---|---|---|---|---|---|---|---|---|
| 1 | 10/04 | 00:00 | 57 | 53 | 88 | 30.38 | NNE | 0 | 0.00 |
| 2 | 10/03 | 23:00 | 59 | 54 | 84 | 30.38 | SE | 0 | 0.00 |
| 3 | 10/03 | 22:00 | 61 | 53 | 76 | 30.37 | SE | 0 | 0.00 |
| 4 | 10/03 | 21:00 | 64 | 53 | 68 | 30.36 | SE | 0 | 0.00 |
| 5 | 10/03 | 20:00 | 68 | 52 | 57 | 30.35 | SE | 0 | 0.00 |
| 6 | 10/03 | 19:00 | 74 | 51 | 46 | 30.33 | E | 2 | 0.00 |
| 7 | 10/03 | 18:00 | 78 | 52 | 41 | 30.32 | ESE | 1 | 0.00 |
| 8 | 10/03 | 17:00 | 80 | 51 | 38 | 30.32 | SE | 2 | 0.00 |
| 9 | 10/03 | 16:00 | 80 | 51 | 37 | 30.33 | S | 2 | 0.00 |
| 10 | 10/03 | 15:00 | 79 | 54 | 43 | 30.34 | SSE | 6 | 0.00 |
| 11 | 10/03 | 14:00 | 79 | 58 | 49 | 30.36 | ESE | 7 | 0.00 |
| 12 | 10/03 | 13:00 | 77 | 57 | 52 | 30.39 | SSE | 1 | 0.00 |
| 13 | 10/03 | 12:00 | 75 | 57 | 54 | 30.41 | SSE | 2 | 0.00 |
| 14 | 10/03 | 11:00 | 70 | 59 | 70 | 30.43 | SSE | 1 | 0.00 |
| 15 | 10/03 | 10:00 | 62 | 59 | 90 | 30.43 | E | 0 | 0.00 |
| 16 | 10/03 | 09:00 | 54 | 54 | 100 | 30.43 | SE | 0 | 0.00 |
| 17 | 10/03 | 08:00 | 49 | 49 | 100 | 30.42 | SSE | 0 | 0.00 |
| 18 | 10/03 | 07:00 | 49 | 48 | 99 | 30.41 | SSE | 0 | 0.00 |
| 19 | 10/03 | 06:00 | 50 | 49 | 98 | 30.39 | SSE | 0 | 0.00 |
| 20 | 10/03 | 05:00 | 51 | 50 | 98 | 30.38 | SSE | 0 | 0.00 |
| 21 | 10/03 | 04:00 | 53 | 51 | 96 | 30.38 | SE | 0 | 0.00 |
| 22 | 10/03 | 03:00 | 54 | 52 | 95 | 30.39 | ENE | 0 | 0.00 |
| 23 | 10/03 | 02:00 | 56 | 54 | 94 | 30.39 | ENE | 0 | 0.00 |
| 24 | 10/03 | 01:00 | 57 | 54 | 93 | 30.38 | ENE | 0 | 0.00 |